| time (UTC) | temp F | wind direction | speed MPH | gust MPH | rain 1hr in | rain 24hr in | rain mn in | humidity % | barometer mb |
| 20260904214815 | 70 | 0 | 0.0 | 0.0 | 0.00 | 0.00 | 0.00 | 64 | 1016.0 |
| 20260904213314 | 70 | 0 | 0.0 | 0.0 | 0.00 | 0.00 | 0.00 | 64 | 1016.0 |
| 20260904211815 | 72 | 240 | 3.0 | 0.0 | 0.00 | 0.00 | 0.00 | 61 | 1016.0 |
| 20260904210313 | 72 | 240 | 3.0 | 0.0 | 0.00 | 0.00 | 0.00 | 61 | 1016.0 |
| 20260904204816 | 73 | 210 | 5.0 | 0.0 | 0.00 | 0.00 | 0.00 | 57 | 1016.0 |
| 20260904203315 | 73 | 210 | 5.0 | 0.0 | 0.00 | 0.00 | 0.00 | 57 | 1016.0 |
| 20260904201815 | 72 | 0 | 0.0 | 0.0 | 0.00 | 0.00 | 0.00 | 61 | 1016.0 |
| 20260904200330 | 72 | 360 | 2.0 | 0.0 | 0.00 | 0.00 | 0.00 | 65 | 1016.0 |
| 20260904194814 | 72 | 360 | 2.0 | 0.0 | 0.00 | 0.00 | 0.00 | 65 | 1016.0 |
| 20260904193330 | 75 | 90 | 2.0 | 0.0 | 0.00 | 0.00 | 0.00 | 54 | 1016.0 |
| 20260904191814 | 75 | 90 | 2.0 | 0.0 | 0.00 | 0.00 | 0.00 | 54 | 1016.0 |
| 20260904190315 | 75 | 90 | 2.0 | 0.0 | 0.00 | 0.00 | 0.00 | 54 | 1016.0 |
| 20260904184815 | 77 | 1.0 | 0.0 | 0.00 | 0.00 | 0.00 | 51 | 1016.0 | |
| 20260904183314 | 77 | 1.0 | 0.0 | 0.00 | 0.00 | 0.00 | 51 | 1016.0 | |
| 20260904181819 | 77 | 0 | 0.0 | 0.0 | 0.00 | 0.00 | 0.00 | 47 | 1016.0 |
| 20260904180314 | 77 | 0 | 0.0 | 0.0 | 0.00 | 0.00 | 0.00 | 47 | 1016.0 |
| 20260904174814 | 79 | 350 | 1.0 | 0.0 | 0.00 | 0.00 | 0.00 | 48 | 1016.0 |
| 20260904173314 | 79 | 350 | 1.0 | 0.0 | 0.00 | 0.00 | 0.00 | 48 | 1016.0 |
| 20260904171815 | 81 | 0 | 0.0 | 0.0 | 0.00 | 0.00 | 0.00 | 42 | 1015.0 |
| 20260904170314 | 81 | 0 | 0.0 | 0.0 | 0.00 | 0.00 | 0.00 | 42 | 1015.0 |
| 20260904164814 | 82 | 280 | 3.0 | 0.0 | 0.00 | 0.00 | 0.00 | 37 | 1015.0 |
| 20260904163314 | 82 | 280 | 3.0 | 0.0 | 0.00 | 0.00 | 0.00 | 37 | 1015.0 |
| 20260904161814 | 84 | 280 | 3.0 | 0.0 | 0.00 | 0.00 | 0.00 | 35 | 1015.0 |
| 20260904160314 | 84 | 280 | 3.0 | 0.0 | 0.00 | 0.00 | 0.00 | 35 | 1015.0 |
| 20260904154815 | 86 | 260 | 6.0 | 0.0 | 0.00 | 0.00 | 0.00 | 33 | 1015.0 |
| 20260904153316 | 86 | 260 | 6.0 | 0.0 | 0.00 | 0.00 | 0.00 | 33 | 1015.0 |
| 20260904151814 | 86 | 270 | 7.0 | 0.0 | 0.00 | 0.00 | 0.00 | 33 | 1015.0 |
| 20260904150315 | 86 | 270 | 7.0 | 0.0 | 0.00 | 0.00 | 0.00 | 33 | 1015.0 |
| 20260904144815 | 86 | 270 | 8.0 | 0.0 | 0.00 | 0.00 | 0.00 | 33 | 1015.0 |
| 20260904143315 | 86 | 270 | 8.0 | 0.0 | 0.00 | 0.00 | 0.00 | 33 | 1015.0 |
| 20260904141814 | 86 | 260 | 8.0 | 0.0 | 0.00 | 0.00 | 0.00 | 31 | 1015.0 |
| 20260904140324 | 86 | 260 | 8.0 | 0.0 | 0.00 | 0.00 | 0.00 | 31 | 1015.0 |
| 20260904134814 | 86 | 260 | 10.0 | 0.0 | 0.00 | 0.00 | 0.00 | 33 | 1016.0 |
| 20260904133315 | 86 | 260 | 10.0 | 0.0 | 0.00 | 0.00 | 0.00 | 33 | 1016.0 |
| 20260904131814 | 84 | 280 | 7.0 | 0.0 | 0.00 | 0.00 | 0.00 | 37 | 1016.0 |
| 20260904130314 | 84 | 280 | 7.0 | 0.0 | 0.00 | 0.00 | 0.00 | 37 | 1016.0 |
| 20260904124814 | 84 | 280 | 7.0 | 0.0 | 0.00 | 0.00 | 0.00 | 37 | 1016.0 |
| 20260904123314 | 84 | 280 | 7.0 | 0.0 | 0.00 | 0.00 | 0.00 | 37 | 1016.0 |
| 20260904121815 | 84 | 260 | 9.0 | 0.0 | 0.00 | 0.00 | 0.00 | 40 | 1016.0 |
| 20260904120314 | 84 | 260 | 9.0 | 0.0 | 0.00 | 0.00 | 0.00 | 40 | 1016.0 |
| 20260904114814 | 82 | 260 | 10.0 | 0.0 | 0.00 | 0.00 | 0.00 | 42 | 1017.0 |
| 20260904113315 | 82 | 260 | 10.0 | 0.0 | 0.00 | 0.00 | 0.00 | 42 | 1017.0 |
| 20260904111815 | 84 | 270 | 8.0 | 0.0 | 0.00 | 0.00 | 0.00 | 40 | 1017.0 |
| 20260904110429 | 84 | 270 | 8.0 | 0.0 | 0.00 | 0.00 | 0.00 | 40 | 1017.0 |
| 20260904104855 | 82 | 260 | 9.0 | 0.0 | 0.00 | 0.00 | 0.00 | 42 | 1017.0 |
| 20260904103419 | 81 | 260 | 8.0 | 0.0 | 0.00 | 0.00 | 0.00 | 48 | 1017.0 |
| 20260904101823 | 81 | 260 | 8.0 | 0.0 | 0.00 | 0.00 | 0.00 | 48 | 1017.0 |
| 20260904100320 | 81 | 260 | 8.0 | 0.0 | 0.00 | 0.00 | 0.00 | 48 | 1017.0 |
| 20260904094815 | 79 | 250 | 9.0 | 0.0 | 0.00 | 0.00 | 0.00 | 51 | 1017.0 |
| 20260904093314 | 79 | 250 | 9.0 | 0.0 | 0.00 | 0.00 | 0.00 | 51 | 1017.0 |
| 20260904091814 | 77 | 250 | 8.0 | 0.0 | 0.00 | 0.00 | 0.00 | 54 | 1018.0 |
| 20260904090314 | 77 | 250 | 8.0 | 0.0 | 0.00 | 0.00 | 0.00 | 54 | 1018.0 |
| 20260904084815 | 75 | 250 | 7.0 | 0.0 | 0.00 | 0.00 | 0.00 | 54 | 1017.0 |
| 20260904083314 | 75 | 250 | 7.0 | 0.0 | 0.00 | 0.00 | 0.00 | 54 | 1017.0 |
| 20260904081817 | 73 | 260 | 9.0 | 0.0 | 0.00 | 0.00 | 0.00 | 61 | 1018.0 |
| 20260904080315 | 73 | 260 | 9.0 | 0.0 | 0.00 | 0.00 | 0.00 | 61 | 1018.0 |
| 20260904074929 | 73 | 290 | 6.0 | 0.0 | 0.00 | 0.00 | 0.00 | 61 | 1018.0 |
| 20260904073315 | 73 | 290 | 6.0 | 0.0 | 0.00 | 0.00 | 0.00 | 61 | 1018.0 |
| 20260904071813 | 72 | 280 | 7.0 | 0.0 | 0.00 | 0.00 | 0.00 | 69 | 1017.0 |
| 20260904070315 | 72 | 280 | 7.0 | 0.0 | 0.00 | 0.00 | 0.00 | 69 | 1017.0 |
| 20260904064814 | 70 | 270 | 7.0 | 0.0 | 0.00 | 0.00 | 0.00 | 73 | 1017.0 |
| 20260904063314 | 70 | 270 | 7.0 | 0.0 | 0.00 | 0.00 | 0.00 | 73 | 1017.0 |
| 20260904061815 | 66 | 300 | 5.0 | 0.0 | 0.00 | 0.00 | 0.00 | 88 | 1017.0 |
| 20260904060314 | 66 | 300 | 5.0 | 0.0 | 0.00 | 0.00 | 0.00 | 88 | 1017.0 |
| 20260904054815 | 66 | 240 | 6.0 | 0.0 | 0.00 | 0.00 | 0.00 | 83 | 1017.0 |
| 20260904053315 | 66 | 240 | 6.0 | 0.0 | 0.00 | 0.00 | 0.00 | 83 | 1017.0 |
| 20260904051814 | 64 | 270 | 5.0 | 0.0 | 0.00 | 0.00 | 0.00 | 94 | 1017.0 |
| 20260904050314 | 64 | 270 | 5.0 | 0.0 | 0.00 | 0.00 | 0.00 | 94 | 1017.0 |
| 20260904044814 | 64 | 270 | 2.0 | 0.0 | 0.00 | 0.00 | 0.00 | 94 | 1017.0 |
| 20260904043314 | 64 | 270 | 2.0 | 0.0 | 0.00 | 0.00 | 0.00 | 94 | 1017.0 |
| 20260904041814 | 64 | 260 | 5.0 | 0.0 | 0.00 | 0.00 | 0.00 | 88 | 1017.0 |
| 20260904040314 | 64 | 260 | 5.0 | 0.0 | 0.00 | 0.00 | 0.00 | 88 | 1017.0 |
| 20260904034814 | 64 | 260 | 5.0 | 0.0 | 0.00 | 0.00 | 0.00 | 88 | 1017.0 |
| 20260904033314 | 64 | 260 | 5.0 | 0.0 | 0.00 | 0.00 | 0.00 | 88 | 1017.0 |
| 20260904031815 | 64 | 1.0 | 0.0 | 0.00 | 0.00 | 0.00 | 88 | 1017.0 | |
| 20260904030314 | 64 | 1.0 | 0.0 | 0.00 | 0.00 | 0.00 | 88 | 1017.0 | |
| 20260904024815 | 64 | 260 | 3.0 | 0.0 | 0.00 | 0.00 | 0.00 | 88 | 1016.0 |
| 20260904023315 | 64 | 260 | 3.0 | 0.0 | 0.00 | 0.00 | 0.00 | 88 | 1016.0 |
| 20260904021814 | 64 | 270 | 5.0 | 0.0 | 0.00 | 0.00 | 0.00 | 88 | 1016.0 |
| 20260904020315 | 64 | 270 | 5.0 | 0.0 | 0.00 | 0.00 | 0.00 | 88 | 1016.0 |
| 20260904014848 | 64 | 320 | 5.0 | 0.0 | 0.00 | 0.00 | 0.00 | 88 | 1016.0 |
| 20260904013314 | 64 | 320 | 5.0 | 0.0 | 0.00 | 0.00 | 0.00 | 88 | 1016.0 |
| 20260904011814 | 64 | 2.0 | 0.0 | 0.00 | 0.00 | 0.00 | 88 | 1016.0 | |
| 20260904010314 | 64 | 2.0 | 0.0 | 0.00 | 0.00 | 0.00 | 88 | 1016.0 | |
| 20260904004815 | 66 | 120 | 3.0 | 0.0 | 0.00 | 0.00 | 0.00 | 78 | 1016.0 |
| 20260904003315 | 66 | 120 | 3.0 | 0.0 | 0.00 | 0.00 | 0.00 | 78 | 1016.0 |
| 20260904001814 | 64 | 120 | 7.0 | 0.0 | 0.00 | 0.00 | 0.00 | 94 | 1016.0 |
| 20260904000315 | 64 | 120 | 7.0 | 0.0 | 0.00 | 0.00 | 0.00 | 94 | 1016.0 |
| 20260903234814 | 64 | 130 | 10.0 | 0.0 | 0.00 | 0.00 | 0.00 | 94 | 1017.0 |
| 20260903233314 | 64 | 130 | 10.0 | 0.0 | 0.00 | 0.00 | 0.00 | 94 | 1017.0 |
| 20260903224812 | 70 | 2.0 | 0.0 | 0.00 | 0.00 | 0.00 | 64 | 1017.0 | |
| 20260903223314 | 70 | 2.0 | 0.0 | 0.00 | 0.00 | 0.00 | 64 | 1017.0 | |
| 20260903221814 | 72 | 360 | 5.0 | 0.0 | 0.00 | 0.00 | 0.00 | 61 | 1017.0 |
| 20260903220314 | 72 | 360 | 5.0 | 0.0 | 0.00 | 0.00 | 0.00 | 61 | 1017.0 |